Погода в Жареном Бугре

Россия / Самарская область     53°32′39″N   50°16′48″E
темп.,
°C
ветер,
м/с
пор.,
м/с
влажн.,
%
обл.,
%
осадки,
мм/ч
давл.,
гПа
погр.,
м
8 мая, сб
сб801:00+12юз2262100 0.0 101617
04:00+11юв2270100 0.1 101623
07:00+13вюв1164100 0.3 101779
10:00+18ююв12487 0.3 1017988
13:00+19ююз243799 0.0 10162086
16:00+20юз134074 0.0 10152047
19:00+19ссв224851 0.0 101423
22:00+14в11550 0.0 101412
9 мая, вс
вс901:00+13ююв335993 0.0 101423
04:00+12юв3362100 0.0 101436
07:00+14ююв276537 0.0 1014202
10:00+20ю574974 0.0 1014942
13:00+22ю464143 0.0 10141734
16:00+21ю354984 0.0 1013346
19:00+19вюв225681 0.0 101414
22:00+16юв2259100 0.0 101416
10 мая, пн
пн1001:00+15юв226399 0.0 101527
04:00+14юв2269100 0.0 101611
07:00+16вюв2569100 0.0 1017153
10:00+21юв455097 0.0 1018502
13:00+24юв4538100 0.0 10181827
16:00+25вюв4435100 0.0 10182429
19:00+22вюв3554100 0.0 101982
22:00+18вюв2658100 0.0 102192
11 мая, вт
вт1101:00+15св4976100 0.0 1022223
04:00+14всв2286100 0.0 102340
07:00+16всв1272100 0.0 1025114
10:00+20всв3353100 0.0 1026714
13:00+23всв35418 0.0 10261963
16:00+24всв56386 0.0 10252355
19:00+21всв485492 0.0 1026212
22:00+17всв366163 0.0 102798
12 мая, ср
ср1201:00+16всв22607 0.0 102725
04:00+14всв22755 0.0 102729
07:00+16в367051 0.0 1028211
10:00+21вюв4649100 0.0 1028812
13:00+24вюв4640100 0.0 10281897
16:00+25вюв4538100 0.0 10272322
19:00+22всв3756100 0.0 1027148
22:00+19в375798 0.0 1026166